Chillicothe, MO

8:55 AM CDT on October 18, 2017 (GMT -0500)
Chillicothe

Weather History for KCDJ - August, 2013

Change the Weather History Date:

Monday, August 26, 2013

  Actual Average (KIRK) Record (KIRK)
Temperature  
Mean Temperature 83 °F -  
Max Temperature 96 °F 84 °F 108 °F (1936)
Min Temperature 71 °F 63 °F 48 °F (1962)
Cooling Degree Days 18    
Growing Degree Days 33 (Base 50)    
Moisture  
Dew Point 69 °F    
Average Humidity 64    
Maximum Humidity 87    
Minimum Humidity 40    
Precipitation  
Precipitation 0.00 in - - ()
Sea Level Pressure  
Sea Level Pressure 30.08 in    
Wind  
Wind Speed 4 mph (South)    
Max Wind Speed 13 mph    
Max Gust Speed 20 mph    
Averages and records for this station are not official NWS values.
T = Trace of Precipitation, MM = Missing Value Source: NWS Daily Summary

Daily Weather History Graph

Daily Weather History Graph

Search for Another Location

Airport or City:

Trip Planner

Search our weather history database for the weather conditions in past years. The results will help you decide how hot, cold, wet, or windy it might be!

Date:

Astronomy

Aug. 26, 2013 Rise Set
Actual Time 6:36 AM CDT 7:54 PM CDT
Civil Twilight 6:08 AM CDT 8:22 PM CDT
Nautical Twilight 5:35 AM CDT 8:55 PM CDT
Astronomical Twilight 4:59 AM CDT 9:31 PM CDT
Moon 11:06 PM CDT (8/26) 12:38 PM CDT (8/26)
Length of Visible Light 14h 13m
Length of Day
13h 17m
Waning Gibbous, 66% of the Moon is Illuminated
Aug 26
Waning Gibbous
Aug 28
Last Quarter
Sep 5
New
Sep 12
First Quarter
Sep 19
Full

Hourly Weather History & Observations

Time (CDT) Temp. Heat Index Dew Point Humidity Pressure Visibility Wind Dir Wind Speed Gust Speed Precip Events Conditions
12:52 AM 73.9 °F - 68.0 °F 82% 30.13 in - South 3.5 mph - N/A   Unknown
1:52 AM 73.9 °F - 66.9 °F 79% 30.12 in - Calm Calm - N/A   Unknown
2:52 AM 71.1 °F - 66.9 °F 87% 30.11 in - Calm Calm - N/A   Unknown
3:52 AM 73.0 °F - 66.9 °F 81% 30.11 in - Calm Calm - N/A   Unknown
4:52 AM 73.0 °F - 66.9 °F 81% 30.11 in - SSW 3.5 mph - N/A   Unknown
5:52 AM 72.0 °F - 66.9 °F 84% 30.12 in - South 3.5 mph - N/A   Unknown
6:52 AM 71.1 °F - 66.9 °F 87% 30.13 in - SSE 3.5 mph - N/A   Unknown
7:52 AM 73.9 °F - 68.0 °F 82% 30.14 in - South 4.6 mph - N/A   Unknown
8:52 AM 78.1 °F - 69.1 °F 74% 30.14 in - Variable 3.5 mph - N/A   Unknown
9:52 AM 84.0 °F 89.0 °F 71.1 °F 65% 30.13 in - SSW 6.9 mph - N/A   Unknown
10:52 AM 88.0 °F 93.8 °F 71.1 °F 57% 30.12 in - Variable 6.9 mph - N/A   Unknown
11:52 AM 91.0 °F 96.6 °F 70.0 °F 50% 30.10 in - SSW 6.9 mph - N/A   Unknown
12:52 PM 93.0 °F 97.9 °F 69.1 °F 45% 30.08 in - Variable 6.9 mph 19.6 mph N/A   Unknown
1:52 PM 93.9 °F 97.5 °F 66.9 °F 41% 30.06 in - SW 8.1 mph - N/A   Unknown
2:52 PM 95.0 °F 99.0 °F 66.9 °F 40% 30.05 in - SSW 5.8 mph - N/A   Unknown
3:52 PM 95.0 °F 100.7 °F 69.1 °F 43% 30.03 in - South 10.4 mph - N/A   Unknown
4:52 PM 93.9 °F 99.1 °F 69.1 °F 44% 30.02 in - South 12.7 mph 17.3 mph N/A   Unknown
5:52 PM 93.0 °F 99.0 °F 70.0 °F 47% 30.02 in - South 8.1 mph - N/A   Unknown
6:52 PM 90.0 °F 95.4 °F 70.0 °F 52% 30.02 in - South 8.1 mph - N/A   Unknown
7:52 PM 87.1 °F 91.3 °F 69.1 °F 55% 30.02 in - South 5.8 mph - N/A   Unknown
8:52 PM 82.9 °F 86.5 °F 69.1 °F 63% 30.02 in - South 5.8 mph - N/A   Unknown
9:52 PM 82.9 °F 87.0 °F 70.0 °F 65% 30.00 in - South 8.1 mph - N/A   Unknown
10:52 PM 82.0 °F 85.9 °F 70.0 °F 67% 30.01 in - SSW 6.9 mph - N/A   Unknown
11:52 PM 79.0 °F - 70.0 °F 74% 30.02 in - SSE 3.5 mph - N/A   Unknown